Location: Antoign�
(47.0844°N, 0.1131°W)
Time: 11:20:13
(UTC+00:00)

Cosmos 2322 - Pass Details

Date: 03 March 2021
Orbit: 841 x 854 km, 71.0° (Epoch: 11 April)

Event Time Altitude Azimuth Distance (km) Brightness Sun altitude
Rises 19:42:58 0° 196° (SSW) 3,409 6.9 -20.1°
Reaches altitude 10° 19:45:25 10° 194° (SSW) 2,477 6.1 -20.5°
Maximum altitude 19:51:04 68° 113° (ESE) 917 3.6 -21.4°
Drops below altitude 10° 19:56:45 10° 31° (NNE) 2,491 6.0 -22.4°
Sets 19:59:13 0° 29° (NNE) 3,430 6.7 -22.8°
